This demonstration page uses our WeatherBlox Daily Observations layout. Learn more.

Left ArrowRight Arrow

Hourly Observations for December 14, 2015

Temp ( °F °C ) Dew Point ( °F °C ) Humidity (%) Winds ( mph kmh ) Pressure ( in mb ) Visibility ( mi km ) Precip ( " mm )
12:53 am 00:53 Clear 63 17.2 47 8.3 56 56 N N/A 29.71 1006 10 16 N/A
1:53 am 01:53 Clear 63 17.2 47 8.3 56 56 VRB 6 9 29.65 1004 10 16 N/A
2:53 am 02:53 Clear 63 17.2 48 8.9 58 58 VRB 5 7 29.65 1004 10 16 N/A
3:53 am 03:53 Clear 64 17.8 49 9.4 58 58 SSE 8 13 29.61 1003 10 16 N/A
4:53 am 04:53 Mostly Cloudy 65 18.3 49 9.4 56 56 SSE 9 15 29.57 1001 10 16 N/A
5:53 am 05:53 Mostly Cloudy 66 18.9 49 9.4 54 54 SSE 9 15 29.52 1000 10 16 N/A
6:53 am 06:53 Cloudy with Light Rain 60 15.6 55 12.8 84 84 SSW 10 17 29.55 1001 5 8 0.01 0.25
7:09 am 07:09 Cloudy with Rain 59 15 57 13.9 93 93 SSW 12 19 29.56 1001 3 5 0.03 0.76
7:21 am 07:21 Cloudy with Light Rain 59 15 57 13.9 93 93 SSW 7 11 29.59 1002 6 10 0.04 1.02
7:53 am 07:53 Cloudy with Light Rain 59 15 57 13.9 93 93 SW 9 15 29.57 1002 6 10 0.08 2.03
8:53 am 08:53 Cloudy with Light Rain 58 14.4 55 12.8 90 90 S 6 9 29.54 1000 6 10 0.08 2.03
9:53 am 09:53 Cloudy with Light Rain 58 14.4 55 12.8 90 90 S 9 15 29.48 998 9 14 0.05 1.27
10:19 am 10:19 Cloudy with Rain 58 14.4 54 12.2 87 87 SSW 13 20 29.50 999 4 6 0.02 0.51
10:45 am 10:45 Cloudy with Light Rain 57 13.9 53 11.7 87 87 SSW 9 15 29.50 999 10 16 0.03 0.76
10:53 am 10:53 Cloudy 57 13.9 52 11.1 83 83 SW 14 22 29.49 999 10 16 0.03 0.76
11:53 am 11:53 Partly Cloudy 59 15 48 8.9 67 67 SW 16 26 29.47 998 10 16 N/A
12:53 pm 12:53 Partly Cloudy 61 16.1 45 7.2 56 56 SSW 10 17 29.45 997 10 16 N/A
1:53 pm 13:53 Cloudy with Light Rain 58 14.4 44 6.7 60 60 SW 16 26 29.46 998 10 16 N/A
2:53 pm 14:53 Mostly Cloudy with Light Rain 55 12.8 51 10.6 87 87 S 8 13 29.43 997 7 11 0.03 0.76
3:53 pm 15:53 Cloudy with Light Rain 55 12.8 47 8.3 74 74 WSW 15 24 29.47 998 8 13 N/A
4:45 pm 16:45 Cloudy with Light Rain 52 11.1 48 8.9 86 86 SW 9 15 29.50 999 6 10 0.04 1.02
4:53 pm 16:53 Cloudy with Light Rain 52 11.1 49 9.4 89 89 SW 9 15 29.49 999 7 11 0.04 1.02
5:03 pm 17:03 Cloudy 52 11.1 48 8.9 86 86 SW 14 22 29.50 999 10 16 N/A
5:53 pm 17:53 Cloudy 53 11.7 45 7.2 74 74 SW 9 15 29.51 999 10 16 N/A
6:53 pm 18:53 Cloudy 53 11.7 44 6.7 72 72 SW 13 20 29.54 1000 10 16 N/A
7:53 pm 19:53 Cloudy 53 11.7 43 6.1 69 69 WSW 9 15 29.56 1001 10 16 N/A
8:53 pm 20:53 Cloudy with Light Rain 49 9.4 46 7.8 90 90 WSW 12 19 29.60 1002 10 16 0.03 0.76
9:53 pm 21:53 Cloudy 49 9.4 45 7.2 86 86 SW 8 13 29.62 1003 10 16 N/A
10:53 pm 22:53 Cloudy with Light Rain 48 8.9 44 6.7 86 86 WSW 17 28 29.65 1004 10 16 N/A
11:04 pm 23:04 Cloudy with Light Rain 48 8.9 42 5.6 80 80 WSW 10 17 29.68 1005 10 16 N/A
11:53 pm 23:53 Cloudy 47 8.3 41 5 80 80 WSW 9 15 29.68 1005 10 16 0.01 0.25

Powered by AerisWeather